KE5BM-13 Weather Reports


time (UTC)temp
C
wind
direction
speed
KPH
gust
KPH
rain 1hr
cm
rain 24hr
cm
rain mn
cm
humidity
%
barometer
mb
20260503171931 6 44 8.0 19.3 0.03 2.57 1.80 92 1004.2
20260503171432 6 15 8.0 19.3 0.03 2.57 1.80 91 1004.2
20260503170930 6 286 8.0 19.3 0.05 2.57 1.80 91 1004.2
20260503170434 7 0 8.0 19.3 0.08 2.57 1.80 92 1004.2
20260503150915 7 5 8.0 16.1 0.05 2.36 1.60 92 1003.4
20260503150414 7 23 8.0 17.7 0.05 2.36 1.60 92 1003.4
20260503131354 6 11 6.4 16.1 0.00 2.31 1.55 93 1003.3
20260503130852 6 5 6.4 16.1 0.00 2.31 1.55 93 1003.3
20260503130353 6 319 4.8 11.3 0.00 2.31 1.55 94 1003.4
20260503110337 7 32 8.0 17.7 0.23 2.29 1.52 96 1004.5
20260503090321 8 0 6.4 12.9 0.15 1.73 0.97 96 1005.3
20260503081316 8 5 6.4 12.9 0.10 1.60 0.86 96 1005.2
20260503080817 8 5 4.8 14.5 0.10 1.60 0.84 97 1005.0
20260503080316 8 13 4.8 14.5 0.08 1.57 0.81 97 1005.1
20260503072803 8 306 4.8 9.7 0.13 1.52 0.76 97 1005.5
20260503072301 8 303 4.8 9.7 0.15 1.52 0.76 97 1005.9
20260503071759 8 323 3.2 6.4 0.18 1.52 0.76 97 1005.7
20260503071301 8 355 4.8 8.0 0.18 1.50 0.74 97 1005.8
20260503070800 8 308 4.8 9.7 0.20 1.50 0.74 97 1005.7
20260503070300 8 350 4.8 9.7 0.20 1.50 0.74 96 1005.9
20260503060251 8 311 1.6 3.2 0.15 1.30 0.53 96 1007.1
20260503054726 8 314 1.6 3.2 0.18 1.27 0.51 96 1007.2
20260503054223 8 319 1.6 3.2 0.18 1.24 0.48 96 1007.0
20260503053722 8 349 1.6 3.2 0.20 1.24 0.48 96 1007.0
20260503053218 8 27 1.6 4.8 0.25 1.22 0.46 96 1007.0
20260503052718 8 15 1.6 4.8 0.25 1.19 0.43 96 1007.0
20260503052214 8 5 3.2 6.4 0.28 1.19 0.43 96 1007.0
20260503051706 8 31 3.2 6.4 0.30 1.17 0.41 96 1007.3
20260503051207 8 37 1.6 4.8 0.33 1.17 0.41 96 1007.4
20260503050704 8 42 1.6 4.8 0.36 1.14 0.38 96 1007.6
20260503050203 8 39 1.6 4.8 0.36 1.14 0.38 96 1007.7
20260503045657 8 37 1.6 4.8 0.36 1.12 0.36 96 1007.7
20260503045153 8 31 1.6 4.8 0.36 1.09 0.33 96 1007.8
20260503044648 8 0 3.2 4.8 0.36 1.09 0.33 96 1007.8
20260503044145 9 344 3.2 4.8 0.36 1.07 0.30 96 1008.0
20260503043646 9 306 1.6 4.8 0.38 1.04 0.28 96 1008.1
20260503043148 9 274 0.0 3.2 0.33 0.97 0.23 96 1008.4
20260503042646 9 273 0.0 3.2 0.33 0.94 0.18 96 1008.6
20260503042146 9 294 0.0 1.6 0.28 0.89 0.13 96 1008.5
20260503041645 9 294 0.0 3.2 0.28 0.86 0.10 96 1008.5
20260503041144 9 294 0.0 3.2 0.28 0.84 0.08 96 1008.6
20260503040637 9 294 0.0 1.6 0.23 0.79 0.05 96 1008.5
20260503040136 9 294 0.0 1.6 0.25 0.79 0.03 96 1008.5
20260503035635 9 294 0.0 1.6 0.25 0.76 0.76 96 1008.5
20260503035125 9 294 0.0 1.6 0.23 0.74 0.74 96 1008.6
20260503034623 9 294 0.0 3.2 0.23 0.74 0.74 96 1008.6
20260503034124 9 294 0.0 3.2 0.23 0.71 0.71 96 1008.6
20260503033623 10 222 0.0 0.0 0.20 0.66 0.66 96 1008.8
20260503033119 10 222 0.0 0.0 0.18 0.64 0.64 96 1008.7
20260503032614 10 222 0.0 0.0 0.18 0.61 0.61 96 1008.7
20260503032102 9 222 0.0 0.0 0.23 0.61 0.61 96 1008.8
20260503031559 10 222 0.0 0.0 0.23 0.58 0.58 96 1008.7
20260503031057 10 222 0.0 0.0 0.23 0.56 0.56 96 1008.8
20260503030552 9 222 0.0 0.0 0.25 0.56 0.56 96 1008.9
20260503030044 9 222 0.0 0.0 0.23 0.53 0.53 96 1008.9
20260503025530 9 222 0.0 0.0 0.23 0.51 0.51 96 1008.9
20260503025028 9 222 0.0 0.0 0.23 0.51 0.51 96 1009.0
20260503024520 9 222 0.0 1.6 0.23 0.48 0.48 96 1009.0
20260503023944 9 222 0.0 1.6 0.25 0.48 0.48 96 1009.1
20260503023442 9 222 0.0 4.8 0.25 0.46 0.46 96 1009.2
20260503022943 9 221 1.6 4.8 0.23 0.43 0.43 95 1009.2
20260503022443 9 218 1.6 6.4 0.23 0.41 0.41 95 1009.3
20260503021946 9 158 1.6 6.4 0.25 0.38 0.38 96 1009.5
20260503021435 9 191 0.0 1.6 0.23 0.36 0.36 95 1009.5
20260503020925 9 191 0.0 1.6 0.23 0.33 0.33 95 1009.5
20260503020404 9 191 0.0 1.6 0.20 0.30 0.30 95 1009.6
20260503015905 9 191 0.0 1.6 0.23 0.30 0.30 95 1009.7
20260503015410 9 191 0.0 3.2 0.20 0.28 0.28 95 1009.7
20260503014819 9 191 0.0 3.2 0.18 0.25 0.25 95 1009.9
20260503014319 9 196 0.0 3.2 0.18 0.23 0.25 95 1009.9
20260503013816 9 168 0.0 1.6 0.18 0.23 0.23 95 1010.0
20260503013306 9 168 1.6 6.4 0.15 0.20 0.20 95 1010.0
20260503012805 9 159 1.6 6.4 0.15 0.20 0.20 95 1010.0
20260503012305 9 162 1.6 6.4 0.13 0.18 0.18 95 1010.1
20260503011802 9 154 3.2 8.0 0.10 0.13 0.13 95 1010.1
20260503011304 9 150 3.2 8.0 0.10 0.13 0.13 95 1010.0
20260503010749 9 173 1.6 6.4 0.08 0.10 0.10 95 1010.0
20260503010244 9 199 1.6 6.4 0.08 0.10 0.10 95 1010.0
20260503005744 9 173 1.6 6.4 0.08 0.08 0.08 95 1010.0
20260503005244 9 155 1.6 6.4 0.08 0.08 0.08 94 1010.0
20260503004737 10 138 1.6 6.4 0.08 0.08 0.08 94 1010.0
20260503004230 10 162 1.6 6.4 0.05 0.05 0.05 94 1010.0
20260503003731 9 169 1.6 6.4 0.05 0.05 0.05 94 1010.0
20260503003225 10 163 1.6 6.4 0.05 0.05 0.05 94 1010.1
20260503002720 10 160 1.6 6.4 0.05 0.05 0.05 94 1010.1
20260503002212 10 194 1.6 3.2 0.05 0.05 0.05 94 1010.2
20260503001713 9 164 1.6 6.4 0.03 0.03 0.03 94 1010.1
20260503001152 9 170 1.6 6.4 0.03 0.03 0.03 93 1010.1
20260503000651 9 184 1.6 6.4 0.03 0.03 0.03 93 1010.2
20260503000149 9 153 1.6 9.7 0.03 0.03 0.03 93 1010.1
20260502235645 9 185 3.2 9.7 0.00 0.00 0.00 93 1010.1
20260502235145 9 167 3.2 8.0 0.00 0.00 0.00 93 1010.1
20260502234646 9 159 3.2 6.4 0.00 0.00 0.00 92 1010.0
20260502234144 9 164 3.2 8.0 0.00 0.00 0.00 92 1010.0
20260502233644 9 183 3.2 8.0 0.00 0.00 0.00 91 1010.0
20260502233146 9 123 3.2 9.7 0.00 0.00 0.00 91 1010.0
20260502232641 9 172 4.8 9.7 0.00 0.00 0.00 90 1010.0
20260502232140 10 144 3.2 8.0 0.00 0.00 0.00 89 1010.0
20260502231637 10 159 3.2 9.7 0.00 0.00 0.00 88 1010.0
20260502231138 10 170 4.8 9.7 0.00 0.00 0.00 87 1010.0
20260502230634 10 154 4.8 9.7 0.00 0.00 0.00 87 1010.1
20260502230135 10 159 4.8 9.7 0.00 0.00 0.00 87 1010.1
20260502225632 10 155 4.8 12.9 0.00 0.00 0.00 86 1010.0
20260502225130 10 152 6.4 12.9 0.00 0.00 0.00 86 1010.0
20260502224628 10 165 6.4 12.9 0.00 0.00 0.00 86 1010.0
20260502224128 10 154 6.4 12.9 0.00 0.00 0.00 85 1010.0
20260502223629 10 155 8.0 14.5 0.00 0.00 0.00 85 1010.0
20260502223125 10 159 8.0 14.5 0.00 0.00 0.00 85 1010.0
20260502222625 10 145 6.4 12.9 0.00 0.00 0.00 85 1009.9
20260502222127 10 155 6.4 11.3 0.00 0.00 0.00 84 1009.9
20260502221626 10 135 6.4 14.5 0.00 0.00 0.00 84 1010.0
20260502221126 10 162 6.4 14.5 0.00 0.00 0.00 84 1010.0
20260502220622 10 150 6.4 14.5 0.00 0.00 0.00 84 1010.1
20260502220123 10 147 6.4 14.5 0.00 0.00 0.00 84 1010.1
20260502215620 10 157 6.4 14.5 0.00 0.00 0.00 84 1010.0
20260502215120 10 155 6.4 14.5 0.00 0.00 0.00 83 1010.0
20260502214619 10 181 6.4 14.5 0.00 0.00 0.00 83 1010.0
20260502214118 10 138 6.4 14.5 0.00 0.00 0.00 83 1010.0
20260502213619 10 149 6.4 14.5 0.00 0.00 0.00 82 1010.1
20260502213119 10 159 6.4 12.9 0.00 0.00 0.00 81 1010.2
20260502212617 10 148 4.8 12.9 0.00 0.00 0.00 81 1010.2
20260502212115 10 214 4.8 12.9 0.00 0.00 0.00 80 1010.4
20260502211617 10 178 6.4 12.9 0.00 0.00 0.00 80 1010.3
20260502211116 10 146 6.4 12.9 0.00 0.00 0.00 79 1010.2
20260502210616 11 126 6.4 12.9 0.00 0.00 0.00 79 1010.3
20260502210114 11 155 6.4 12.9 0.00 0.00 0.00 78 1010.3
20260502205614 11 174 6.4 14.5 0.00 0.00 0.00 78 1010.4
20260502205113 11 212 8.0 14.5 0.00 0.00 0.00 77 1010.4
20260502204612 11 169 8.0 16.1 0.00 0.00 0.00 76 1010.4
20260502204111 11 168 8.0 16.1 0.00 0.00 0.00 75 1010.4
20260502203611 11 138 8.0 14.5 0.00 0.00 0.00 74 1010.3
20260502203107 11 156 8.0 16.1 0.00 0.00 0.00 72 1010.4
20260502202603 11 186 8.0 16.1 0.00 0.00 0.00 70 1010.4
20260502202106 11 161 6.4 16.1 0.00 0.00 0.00 71 1010.5
20260502201605 11 176 4.8 11.3 0.00 0.00 0.00 71 1010.7
20260502201103 11 151 6.4 14.5 0.00 0.00 0.00 70 1010.7
20260502200602 11 146 6.4 14.5 0.00 0.00 0.00 70 1010.6
20260502195600 11 171 8.0 16.1 0.00 0.00 0.00 73 1010.6
20260502194602 11 157 9.7 17.7 0.00 0.00 0.00 74 1010.8
20260502194101 11 150 8.0 14.5 0.00 0.00 0.00 75 1010.9
20260502193600 11 157 6.4 12.9 0.00 0.00 0.00 77 1011.0
20260502193100 11 168 8.0 12.9 0.00 0.00 0.00 77 1011.0
20260502192601 11 193 8.0 17.7 0.00 0.00 0.00 76 1010.9
20260502192101 11 155 8.0 17.7 0.00 0.00 0.00 77 1011.1
20260502191555 11 155 8.0 16.1 0.00 0.00 0.00 78 1011.1
20260502191053 11 178 8.0 17.7 0.00 0.00 0.00 77 1011.1
20260502190053 11 170 6.4 14.5 0.00 0.00 0.00 78 1011.2
20260502185552 11 155 8.0 17.7 0.00 0.00 0.00 79 1011.3
20260502185050 11 232 8.0 17.7 0.00 0.00 0.00 79 1011.4
20260502184552 11 178 8.0 17.7 0.00 0.00 0.00 80 1011.4
20260502184051 11 199 9.7 17.7 0.00 0.00 0.00 79 1011.4
20260502183548 11 159 9.7 17.7 0.00 0.00 0.00 79 1011.4
20260502183048 11 201 8.0 17.7 0.00 0.00 0.00 80 1011.5
20260502182548 11 169 8.0 17.7 0.00 0.00 0.00 79 1011.5
20260502182047 11 178 8.0 14.5 0.00 0.00 0.00 79 1011.6
20260502181546 11 194 8.0 14.5 0.00 0.00 0.00 79 1011.6
20260502181046 11 167 8.0 16.1 0.00 0.00 0.00 78 1011.7
20260502180546 11 205 8.0 17.7 0.00 0.00 0.00 78 1011.8